Seikkailu — OJ2717 — position and weather

sailwx.info

Track history (hours):
 
Tides and Currents Weather Stations Pressure Air Temp Water Temp Dewpoint Dewpoint Depression Visibility Wind Speed Wind Dir Waves Ship Positions

Seikkailu

Last reported at 2016-Aug-04 15:21 UTC. Time now 2016-Aug-26 20:00 UTC.
Position N 59°57' E 023°50'.
Warning: this ship's position is 22 days out of date.

Length 10 m.

Type: Pleasure craft. MMSI: 230120280.

Date/timePositionNaut miles runAvg speedWind from/ knotsBaromVisibWave heightAir tempDewpointWater temp
2016-Aug-04 15:21N 59°57' E 023°50'4 4.7
2016-Aug-04 14:33N 59°55' E 023°44'5 4.7
2016-Aug-04 13:33N 59°52' E 023°37'2 2.2
2016-Aug-04 12:32N 59°50' E 023°34'0 0.0
2016-Aug-04 11:32N 59°50' E 023°34'0 0.0
2016-Aug-04 10:32N 59°50' E 023°34'0 0.0
2016-Aug-04 09:32N 59°50' E 023°34'0 0.0
2016-Aug-04 08:29N 59°50' E 023°34'0 0.0
2016-Aug-04 07:32N 59°50' E 023°34'0 0.0
2016-Aug-04 06:32N 59°50' E 023°34'0 0.0
2016-Aug-04 04:29N 59°50' E 023°34'0 0.0
2016-Aug-04 03:32N 59°50' E 023°34'0 0.0
2016-Aug-04 02:33N 59°50' E 023°34'0 0.0
2016-Aug-04 01:31N 59°50' E 023°34'0 0.0
2016-Aug-04 00:31N 59°50' E 023°34'0 0.0
2016-Aug-03 23:31N 59°50' E 023°34'0 0.0
2016-Aug-03 22:31N 59°50' E 023°34'0 0.0
2016-Aug-03 21:31N 59°50' E 023°34'0 0.0
2016-Aug-03 20:31N 59°50' E 023°34'0 0.0
2016-Aug-03 19:31N 59°50' E 023°34'0 0.0
2016-Aug-03 18:31N 59°50' E 023°34'0 0.0
2016-Aug-03 17:31N 59°50' E 023°34'0 0.0
2016-Aug-03 16:31N 59°50' E 023°34'0 0.0
2016-Aug-03 15:31N 59°50' E 023°34'0 0.0
2016-Aug-03 14:31N 59°50' E 023°34'0 0.0
2016-Aug-03 13:31N 59°50' E 023°34'4 3.7
2016-Aug-03 12:33N 59°50' E 023°27'4 4.0
2016-Aug-03 11:33N 59°49' E 023°20'4 4.1
2016-Aug-03 10:33N 59°48' E 023°12'  
2016-Jul-30 06:31N 59°51' E 021°40'3 2.7
2016-Jul-30 05:29N 59°50' E 021°35'0 0.0
2016-Jul-30 04:32N 59°50' E 021°35'0 0.0
2016-Jul-30 03:32N 59°50' E 021°35'0 0.0
2016-Jul-30 02:32N 59°50' E 021°35'0 0.0
2016-Jul-30 01:32N 59°50' E 021°35'0 0.0
2016-Jul-30 00:26N 59°50' E 021°35'0 0.0
2016-Jul-29 23:32N 59°50' E 021°35'0 0.0
2016-Jul-29 22:32N 59°50' E 021°35'0 0.0
2016-Jul-29 21:29N 59°50' E 021°35'0 0.0
2016-Jul-29 20:32N 59°50' E 021°35'0 0.0
2016-Jul-29 19:32N 59°50' E 021°35'0 0.0
2016-Jul-29 18:26N 59°50' E 021°35'0 0.0
2016-Jul-29 17:32N 59°50' E 021°35'0 0.0
2016-Jul-29 16:29N 59°50' E 021°35'0 0.0
2016-Jul-29 15:32N 59°50' E 021°35'0 0.0
2016-Jul-29 14:32N 59°50' E 021°35'0 0.0
2016-Jul-29 13:32N 59°50' E 021°35'0 0.0
2016-Jul-29 12:26N 59°50' E 021°35'0 0.0
2016-Jul-29 11:29N 59°50' E 021°35'0 0.0
2016-Jul-29 10:32N 59°50' E 021°35'0 0.0
2016-Jul-29 09:32N 59°50' E 021°35'0 0.0
2016-Jul-29 08:32N 59°50' E 021°35'0 0.0
2016-Jul-29 07:17N 59°50' E 021°35'0 0.0
2016-Jul-29 06:29N 59°50' E 021°35'0 0.0
2016-Jul-29 05:29N 59°50' E 021°35'0 0.0
2016-Jul-29 04:29N 59°50' E 021°35'0 0.0
2016-Jul-29 03:32N 59°50' E 021°35'0 0.0
2016-Jul-29 02:32N 59°50' E 021°35'0 0.0
2016-Jul-29 01:29N 59°50' E 021°35'0 0.0
2016-Jul-29 00:32N 59°50' E 021°35'0 0.0
2016-Jul-28 23:26N 59°50' E 021°35'0 0.0
2016-Jul-28 22:29N 59°50' E 021°35'0 0.0
2016-Jul-28 21:32N 59°50' E 021°35'0 0.0
2016-Jul-28 20:29N 59°50' E 021°35'0 0.0
2016-Jul-28 19:32N 59°50' E 021°35'0 0.0
2016-Jul-28 18:32N 59°50' E 021°35'0 0.0
2016-Jul-28 17:32N 59°50' E 021°35'0 0.0
2016-Jul-28 16:26N 59°50' E 021°35'0 0.0
2016-Jul-28 15:29N 59°50' E 021°35'0 0.0
2016-Jul-28 14:26N 59°50' E 021°35'0 0.0
2016-Jul-28 13:32N 59°50' E 021°35'0 0.0
2016-Jul-28 12:32N 59°50' E 021°35'0 0.0
2016-Jul-28 11:29N 59°50' E 021°35'0 0.0
2016-Jul-28 10:32N 59°50' E 021°35'2 1.8
2016-Jul-28 09:33N 59°50' E 021°32'5 5.0
2016-Jul-28 08:33N 59°49' E 021°22'3 2.5
2016-Jul-28 07:31N 59°47' E 021°22'0 0.0
2016-Jul-28 06:31N 59°47' E 021°22'0 0.0
2016-Jul-28 05:32N 59°47' E 021°22'0 0.1
2016-Jul-28 04:31N 59°47' E 021°22'0 0.0
2016-Jul-28 03:33N 59°47' E 021°22'0 0.0
2016-Jul-28 02:33N 59°47' E 021°22'0 0.0
2016-Jul-28 01:31N 59°47' E 021°22'0 0.0
2016-Jul-28 00:31N 59°47' E 021°22'0 0.0
2016-Jul-27 23:28N 59°47' E 021°22'0 0.1
2016-Jul-27 22:32N 59°47' E 021°22'0 0.0
2016-Jul-27 21:33N 59°47' E 021°22'0 0.0
2016-Jul-27 20:32N 59°47' E 021°22'0 0.0
2016-Jul-27 19:32N 59°47' E 021°22'0 0.0
2016-Jul-27 18:32N 59°47' E 021°22'0 0.0
2016-Jul-27 17:32N 59°47' E 021°22'0 0.0
2016-Jul-27 16:32N 59°47' E 021°22'0 0.0
2016-Jul-27 15:29N 59°47' E 021°22'0 0.0
2016-Jul-27 14:32N 59°47' E 021°22'0 0.0
2016-Jul-27 13:29N 59°47' E 021°22'0 0.0
2016-Jul-27 12:32N 59°47' E 021°22'0 0.0
2016-Jul-27 11:32N 59°47' E 021°22'0 0.0
2016-Jul-27 10:29N 59°47' E 021°22'4 4.0
2016-Jul-27 09:32N 59°51' E 021°21'  
Track history (hours):
 
Tides and Currents Weather Stations Pressure Air Temp Water Temp Dewpoint Dewpoint Depression Visibility Wind Speed Wind Dir Waves Ship Positions

Seikkailu

Last reported at 2016-Aug-04 15:21 UTC. Time now 2016-Aug-26 20:00 UTC.
Position N 59°57' E 023°50'.
Warning: this ship's position is 22 days out of date.

Length 10 m.

Type: Pleasure craft. MMSI: 230120280.

Date/timePositionNaut miles runAvg speedWind from/ knotsBaromVisibWave heightAir tempDewpointWater temp
2016-Aug-04 15:21N 59°57' E 023°50'4 4.7
2016-Aug-04 14:33N 59°55' E 023°44'5 4.7
2016-Aug-04 13:33N 59°52' E 023°37'2 2.2
2016-Aug-04 12:32N 59°50' E 023°34'0 0.0
2016-Aug-04 11:32N 59°50' E 023°34'0 0.0
2016-Aug-04 10:32N 59°50' E 023°34'0 0.0
2016-Aug-04 09:32N 59°50' E 023°34'0 0.0
2016-Aug-04 08:29N 59°50' E 023°34'0 0.0
2016-Aug-04 07:32N 59°50' E 023°34'0 0.0
2016-Aug-04 06:32N 59°50' E 023°34'0 0.0
2016-Aug-04 04:29N 59°50' E 023°34'0 0.0
2016-Aug-04 03:32N 59°50' E 023°34'0 0.0
2016-Aug-04 02:33N 59°50' E 023°34'0 0.0
2016-Aug-04 01:31N 59°50' E 023°34'0 0.0
2016-Aug-04 00:31N 59°50' E 023°34'0 0.0
2016-Aug-03 23:31N 59°50' E 023°34'0 0.0
2016-Aug-03 22:31N 59°50' E 023°34'0 0.0
2016-Aug-03 21:31N 59°50' E 023°34'0 0.0
2016-Aug-03 20:31N 59°50' E 023°34'0 0.0
2016-Aug-03 19:31N 59°50' E 023°34'0 0.0
2016-Aug-03 18:31N 59°50' E 023°34'0 0.0
2016-Aug-03 17:31N 59°50' E 023°34'0 0.0
2016-Aug-03 16:31N 59°50' E 023°34'0 0.0
2016-Aug-03 15:31N 59°50' E 023°34'0 0.0
2016-Aug-03 14:31N 59°50' E 023°34'0 0.0
2016-Aug-03 13:31N 59°50' E 023°34'4 3.7
2016-Aug-03 12:33N 59°50' E 023°27'4 4.0
2016-Aug-03 11:33N 59°49' E 023°20'4 4.1
2016-Aug-03 10:33N 59°48' E 023°12'  
2016-Jul-30 06:31N 59°51' E 021°40'3 2.7
2016-Jul-30 05:29N 59°50' E 021°35'0 0.0
2016-Jul-30 04:32N 59°50' E 021°35'0 0.0
2016-Jul-30 03:32N 59°50' E 021°35'0 0.0
2016-Jul-30 02:32N 59°50' E 021°35'0 0.0
2016-Jul-30 01:32N 59°50' E 021°35'0 0.0
2016-Jul-30 00:26N 59°50' E 021°35'0 0.0
2016-Jul-29 23:32N 59°50' E 021°35'0 0.0
2016-Jul-29 22:32N 59°50' E 021°35'0 0.0
2016-Jul-29 21:29N 59°50' E 021°35'0 0.0
2016-Jul-29 20:32N 59°50' E 021°35'0 0.0
2016-Jul-29 19:32N 59°50' E 021°35'0 0.0
2016-Jul-29 18:26N 59°50' E 021°35'0 0.0
2016-Jul-29 17:32N 59°50' E 021°35'0 0.0
2016-Jul-29 16:29N 59°50' E 021°35'0 0.0
2016-Jul-29 15:32N 59°50' E 021°35'0 0.0
2016-Jul-29 14:32N 59°50' E 021°35'0 0.0
2016-Jul-29 13:32N 59°50' E 021°35'0 0.0
2016-Jul-29 12:26N 59°50' E 021°35'0 0.0
2016-Jul-29 11:29N 59°50' E 021°35'0 0.0
2016-Jul-29 10:32N 59°50' E 021°35'0 0.0
2016-Jul-29 09:32N 59°50' E 021°35'0 0.0
2016-Jul-29 08:32N 59°50' E 021°35'0 0.0
2016-Jul-29 07:17N 59°50' E 021°35'0 0.0
2016-Jul-29 06:29N 59°50' E 021°35'0 0.0
2016-Jul-29 05:29N 59°50' E 021°35'0 0.0
2016-Jul-29 04:29N 59°50' E 021°35'0 0.0
2016-Jul-29 03:32N 59°50' E 021°35'0 0.0
2016-Jul-29 02:32N 59°50' E 021°35'0 0.0
2016-Jul-29 01:29N 59°50' E 021°35'0 0.0
2016-Jul-29 00:32N 59°50' E 021°35'0 0.0
2016-Jul-28 23:26N 59°50' E 021°35'0 0.0
2016-Jul-28 22:29N 59°50' E 021°35'0 0.0
2016-Jul-28 21:32N 59°50' E 021°35'0 0.0
2016-Jul-28 20:29N 59°50' E 021°35'0 0.0
2016-Jul-28 19:32N 59°50' E 021°35'0 0.0
2016-Jul-28 18:32N 59°50' E 021°35'0 0.0
2016-Jul-28 17:32N 59°50' E 021°35'0 0.0
2016-Jul-28 16:26N 59°50' E 021°35'0 0.0
2016-Jul-28 15:29N 59°50' E 021°35'0 0.0
2016-Jul-28 14:26N 59°50' E 021°35'0 0.0
2016-Jul-28 13:32N 59°50' E 021°35'0 0.0
2016-Jul-28 12:32N 59°50' E 021°35'0 0.0
2016-Jul-28 11:29N 59°50' E 021°35'0 0.0
2016-Jul-28 10:32N 59°50' E 021°35'2 1.8
2016-Jul-28 09:33N 59°50' E 021°32'5 5.0
2016-Jul-28 08:33N 59°49' E 021°22'3 2.5
2016-Jul-28 07:31N 59°47' E 021°22'0 0.0
2016-Jul-28 06:31N 59°47' E 021°22'0 0.0
2016-Jul-28 05:32N 59°47' E 021°22'0 0.1
2016-Jul-28 04:31N 59°47' E 021°22'0 0.0
2016-Jul-28 03:33N 59°47' E 021°22'0 0.0
2016-Jul-28 02:33N 59°47' E 021°22'0 0.0
2016-Jul-28 01:31N 59°47' E 021°22'0 0.0
2016-Jul-28 00:31N 59°47' E 021°22'0 0.0
2016-Jul-27 23:28N 59°47' E 021°22'0 0.1
2016-Jul-27 22:32N 59°47' E 021°22'0 0.0
2016-Jul-27 21:33N 59°47' E 021°22'0 0.0
2016-Jul-27 20:32N 59°47' E 021°22'0 0.0
2016-Jul-27 19:32N 59°47' E 021°22'0 0.0
2016-Jul-27 18:32N 59°47' E 021°22'0 0.0
2016-Jul-27 17:32N 59°47' E 021°22'0 0.0
2016-Jul-27 16:32N 59°47' E 021°22'0 0.0
2016-Jul-27 15:29N 59°47' E 021°22'0 0.0
2016-Jul-27 14:32N 59°47' E 021°22'0 0.0
2016-Jul-27 13:29N 59°47' E 021°22'0 0.0
2016-Jul-27 12:32N 59°47' E 021°22'0 0.0
2016-Jul-27 11:32N 59°47' E 021°22'0 0.0
2016-Jul-27 10:29N 59°47' E 021°22'4 4.0
2016-Jul-27 09:32N 59°51' E 021°21'  

Dump ship's entire track history